| time (UTC) | temp F | wind direction | speed MPH | gust MPH | rain 1hr in | rain 24hr in | rain mn in | humidity % | barometer mb |
| 20260506001537 | 44 | 345 | 7.0 | 14.0 | 0.00 | 0.00 | 0.00 | 48 | 1011.8 |
| 20260506000035 | 45 | 324 | 9.0 | 18.0 | 0.00 | 0.00 | 0.00 | 47 | 1011.8 |
| 20260505234535 | 45 | 321 | 11.0 | 17.0 | 0.00 | 0.00 | 0.00 | 46 | 1011.7 |
| 20260505233035 | 45 | 339 | 11.0 | 19.0 | 0.00 | 0.00 | 0.00 | 46 | 1011.5 |
| 20260505231547 | 45 | 292 | 13.0 | 21.0 | 0.00 | 0.00 | 0.00 | 44 | 1011.4 |
| 20260505230034 | 45 | 301 | 10.0 | 17.0 | 0.00 | 0.00 | 0.00 | 45 | 1011.4 |
| 20260505224532 | 45 | 295 | 14.0 | 21.0 | 0.00 | 0.00 | 0.00 | 44 | 1011.3 |
| 20260505223031 | 46 | 301 | 14.0 | 19.0 | 0.00 | 0.00 | 0.00 | 45 | 1011.5 |
| 20260505221530 | 46 | 309 | 15.0 | 19.0 | 0.00 | 0.00 | 0.00 | 44 | 1011.4 |
| 20260505220032 | 46 | 328 | 15.0 | 22.0 | 0.00 | 0.00 | 0.00 | 43 | 1011.3 |
| 20260505214540 | 46 | 309 | 11.0 | 18.0 | 0.00 | 0.00 | 0.00 | 43 | 1011.3 |
| 20260505213036 | 46 | 319 | 16.0 | 21.0 | 0.00 | 0.00 | 0.00 | 41 | 1011.3 |
| 20260505211528 | 46 | 301 | 12.0 | 22.0 | 0.00 | 0.00 | 0.00 | 42 | 1011.3 |
| 20260505210028 | 47 | 321 | 14.0 | 19.0 | 0.00 | 0.00 | 0.00 | 40 | 1011.2 |
| 20260505204527 | 47 | 305 | 12.0 | 20.0 | 0.00 | 0.00 | 0.00 | 42 | 1011.2 |
| 20260505203040 | 46 | 302 | 13.0 | 22.0 | 0.00 | 0.00 | 0.00 | 42 | 1011.2 |
| 20260505201532 | 47 | 321 | 13.0 | 20.0 | 0.00 | 0.00 | 0.00 | 42 | 1011.3 |
| 20260505200026 | 47 | 334 | 11.0 | 19.0 | 0.00 | 0.00 | 0.00 | 42 | 1011.4 |
| 20260505194526 | 47 | 298 | 11.0 | 21.0 | 0.00 | 0.00 | 0.00 | 42 | 1011.3 |
| 20260505193031 | 47 | 300 | 15.0 | 19.0 | 0.00 | 0.00 | 0.00 | 40 | 1011.3 |
| 20260505191524 | 46 | 321 | 18.0 | 24.0 | 0.00 | 0.00 | 0.00 | 40 | 1011.1 |
| 20260505190030 | 47 | 335 | 12.0 | 22.0 | 0.00 | 0.00 | 0.00 | 39 | 1011.0 |
| 20260505184526 | 47 | 283 | 9.0 | 18.0 | 0.00 | 0.00 | 0.00 | 39 | 1010.9 |
| 20260505183025 | 47 | 304 | 13.0 | 23.0 | 0.00 | 0.00 | 0.00 | 39 | 1011.0 |
| 20260505181522 | 46 | 322 | 12.0 | 17.0 | 0.00 | 0.00 | 0.00 | 40 | 1011.1 |
| 20260505180022 | 47 | 359 | 11.0 | 22.0 | 0.00 | 0.00 | 0.00 | 42 | 1010.9 |
| 20260505174528 | 46 | 323 | 12.0 | 20.0 | 0.00 | 0.00 | 0.00 | 43 | 1010.8 |
| 20260505173020 | 46 | 311 | 14.0 | 26.0 | 0.00 | 0.00 | 0.00 | 42 | 1011.0 |
| 20260505171520 | 46 | 297 | 17.0 | 23.0 | 0.00 | 0.00 | 0.00 | 41 | 1011.0 |
| 20260505170020 | 46 | 330 | 13.0 | 20.0 | 0.00 | 0.00 | 0.00 | 41 | 1010.7 |
| 20260505164517 | 46 | 330 | 12.0 | 23.0 | 0.00 | 0.00 | 0.00 | 42 | 1010.6 |
| 20260505163016 | 46 | 309 | 12.0 | 22.0 | 0.00 | 0.00 | 0.00 | 39 | 1010.5 |
| 20260505161514 | 46 | 333 | 16.0 | 24.0 | 0.00 | 0.00 | 0.00 | 40 | 1010.3 |
| 20260505153009 | 47 | 307 | 17.0 | 23.0 | 0.00 | 0.00 | 0.00 | 39 | 1010.0 |
| 20260505151506 | 47 | 316 | 15.0 | 25.0 | 0.00 | 0.00 | 0.00 | 40 | 1010.0 |
| 20260505124525 | 39 | 275 | 7.0 | 13.0 | 0.00 | 0.00 | 0.00 | 64 | 1009.0 |
| 20260505123021 | 38 | 308 | 7.0 | 12.0 | 0.00 | 0.00 | 0.00 | 65 | 1008.7 |
| 20260505121516 | 37 | 285 | 6.0 | 11.0 | 0.00 | 0.00 | 0.00 | 66 | 1008.6 |
| 20260505120012 | 36 | 265 | 6.0 | 9.0 | 0.00 | 0.00 | 0.00 | 69 | 1008.3 |
| 20260505114507 | 35 | 293 | 7.0 | 14.0 | 0.00 | 0.00 | 0.00 | 69 | 1008.2 |
| 20260505113010 | 34 | 295 | 7.0 | 14.0 | 0.00 | 0.00 | 0.00 | 73 | 1008.2 |
| 20260505111501 | 32 | 261 | 4.0 | 8.0 | 0.00 | 0.00 | 0.00 | 77 | 1008.1 |
| 20260505101556 | 33 | 262 | 7.0 | 9.0 | 0.00 | 0.00 | 0.00 | 73 | 1007.6 |
| 20260505100055 | 34 | 269 | 6.0 | 9.0 | 0.00 | 0.00 | 0.00 | 73 | 1007.7 |
| 20260505094548 | 34 | 266 | 7.0 | 9.0 | 0.00 | 0.00 | 0.00 | 73 | 1007.7 |
| 20260505093045 | 34 | 262 | 5.0 | 8.0 | 0.00 | 0.00 | 0.00 | 73 | 1007.8 |
| 20260505091543 | 34 | 266 | 5.0 | 8.0 | 0.00 | 0.00 | 0.00 | 73 | 1007.7 |
| 20260505090054 | 35 | 260 | 5.0 | 7.0 | 0.00 | 0.00 | 0.00 | 71 | 1007.5 |
| 20260505084540 | 36 | 310 | 7.0 | 12.0 | 0.00 | 0.00 | 0.00 | 68 | 1007.5 |
| 20260505083036 | 37 | 301 | 7.0 | 13.0 | 0.00 | 0.00 | 0.00 | 67 | 1007.3 |
| 20260505081535 | 37 | 276 | 6.0 | 10.0 | 0.00 | 0.00 | 0.00 | 69 | 1007.1 |
| 20260505080030 | 38 | 240 | 7.0 | 11.0 | 0.00 | 0.00 | 0.00 | 68 | 1007.0 |
| 20260505074527 | 38 | 264 | 7.0 | 12.0 | 0.00 | 0.00 | 0.00 | 68 | 1006.9 |
| 20260505073035 | 38 | 262 | 8.0 | 12.0 | 0.00 | 0.00 | 0.00 | 67 | 1006.8 |
| 20260505071519 | 39 | 251 | 7.0 | 10.0 | 0.00 | 0.00 | 0.00 | 65 | 1006.8 |
| 20260505070017 | 39 | 255 | 7.0 | 11.0 | 0.00 | 0.00 | 0.00 | 65 | 1006.8 |
| 20260505064517 | 39 | 256 | 6.0 | 10.0 | 0.00 | 0.00 | 0.00 | 63 | 1006.8 |
| 20260505063015 | 40 | 271 | 6.0 | 9.0 | 0.00 | 0.00 | 0.00 | 63 | 1006.7 |
| 20260505061513 | 40 | 254 | 7.0 | 10.0 | 0.00 | 0.00 | 0.00 | 62 | 1006.7 |
| 20260505060023 | 40 | 264 | 7.0 | 10.0 | 0.00 | 0.00 | 0.00 | 62 | 1006.5 |
| 20260505054509 | 40 | 240 | 6.0 | 9.0 | 0.00 | 0.00 | 0.00 | 63 | 1006.4 |
| 20260505053005 | 40 | 259 | 5.0 | 8.0 | 0.00 | 0.00 | 0.00 | 63 | 1006.4 |
| 20260505051503 | 39 | 254 | 5.0 | 8.0 | 0.00 | 0.00 | 0.00 | 64 | 1006.3 |
| 20260505041553 | 41 | 266 | 6.0 | 8.0 | 0.00 | 0.00 | 0.00 | 60 | 1006.2 |
| 20260505040050 | 42 | 285 | 5.0 | 10.0 | 0.00 | 0.00 | 0.00 | 58 | 1006.3 |
| 20260505034548 | 42 | 274 | 6.0 | 12.0 | 0.00 | 0.00 | 0.00 | 57 | 1006.3 |
| 20260505033105 | 43 | 281 | 7.0 | 12.0 | 0.00 | 0.00 | 0.00 | 56 | 1006.0 |
| 20260505031542 | 44 | 295 | 6.0 | 10.0 | 0.00 | 0.00 | 0.00 | 54 | 1006.1 |
| 20260505030042 | 44 | 280 | 7.0 | 11.0 | 0.00 | 0.00 | 0.00 | 53 | 1005.8 |
| 20260505024541 | 44 | 287 | 6.0 | 9.0 | 0.00 | 0.00 | 0.00 | 53 | 1005.8 |
| 20260505023046 | 44 | 276 | 5.0 | 9.0 | 0.00 | 0.00 | 0.00 | 51 | 1005.5 |
| 20260505021534 | 44 | 295 | 6.0 | 10.0 | 0.00 | 0.00 | 0.00 | 50 | 1005.2 |
| 20260505020031 | 45 | 278 | 7.0 | 11.0 | 0.00 | 0.00 | 0.00 | 49 | 1004.9 |
| 20260505014531 | 46 | 289 | 7.0 | 13.0 | 0.00 | 0.00 | 0.00 | 47 | 1004.8 |
| 20260505013024 | 47 | 302 | 9.0 | 15.0 | 0.00 | 0.00 | 0.00 | 45 | 1004.6 |
| 20260505011522 | 48 | 319 | 13.0 | 19.0 | 0.00 | 0.00 | 0.00 | 44 | 1004.5 |
| 20260505010019 | 49 | 290 | 12.0 | 19.0 | 0.00 | 0.00 | 0.00 | 43 | 1004.4 |
| 20260505004535 | 50 | 329 | 14.0 | 23.0 | 0.00 | 0.00 | 0.00 | 42 | 1004.3 |
| 20260505003016 | 50 | 338 | 16.0 | 21.0 | 0.00 | 0.00 | 0.00 | 42 | 1004.1 |